This is the latest recevied weather packets stored in our database for station/object KF0WJA. If no packets are shown the sender has not sent any weather packets the latest 10 day(s).
| Time | Temp. | Humidity | Pressure | Rain* | Wind** | Luminosity | Snow |
|---|---|---|---|---|---|---|---|
| 1788562128 | 36.11° C | 45% | 1013.9 hPa | 0 mm | - | 311 W/m² | - |
| 1788561823 | 36.11° C | 44% | 1014.2 hPa | 0 mm | - | 316 W/m² | - |
| 1788561523 | 36.67° C | 44% | 1014.1 hPa | 0 mm | - | 327 W/m² | - |
| 1788561222 | 36.11° C | 44% | 1014.1 hPa | 0 mm | - | 356 W/m² | - |
| 1788560919 | 36.67° C | 43% | 1013.9 hPa | 0 mm | - | 395 W/m² | - |
| 1788560619 | 36.67° C | 43% | 1014.2 hPa | 0 mm | - | 392 W/m² | - |
| 1788560319 | 36.11° C | 44% | 1014.1 hPa | 0 mm | - | 386 W/m² | - |
| 1788560014 | 36.11° C | 45% | 1014.1 hPa | 0 mm | - | 388 W/m² | - |
| 1788559709 | 36.67° C | 43% | 1014.1 hPa | 0 mm | - | 406 W/m² | - |
| 1788559408 | 36.67° C | 43% | 1014.1 hPa | 0 mm | - | 429 W/m² | - |
| 1788559104 | 36.67° C | 44% | 1013.9 hPa | 0 mm | - | 443 W/m² | - |
| 1788558799 | 36.67° C | 44% | 1014.1 hPa | 0 mm | - | 465 W/m² | - |
| 1788558495 | 36.67° C | 45% | 1014.2 hPa | 0 mm | - | 445 W/m² | - |
| 1788558190 | 37.22° C | 43% | 1014.4 hPa | 0 mm | - | 465 W/m² | - |
| 1788557888 | 37.22° C | 43% | 1014.3 hPa | 0 mm | - | 481 W/m² | - |
| 1788557584 | 36.67° C | 44% | 1014.4 hPa | 0 mm | - | 525 W/m² | - |
| 1788557280 | 37.22° C | 43% | 1014.2 hPa | 0 mm | - | 319 W/m² | - |
| 1788556980 | 37.22° C | 42% | 1014.3 hPa | 0 mm | - | 517 W/m² | - |
| 1788556675 | 36.67° C | 44% | 1014.2 hPa | 0 mm | - | 532 W/m² | - |
| 1788556369 | 36.67° C | 43% | 1014.4 hPa | 0 mm | - | 561 W/m² | - |
| 1788556065 | 37.22° C | 44% | 1014.5 hPa | 0 mm | - | 562 W/m² | - |
| 1788555759 | 37.22° C | 44% | 1014.4 hPa | 0 mm | - | 620 W/m² | - |
| 1788555455 | 37.22° C | 44% | 1014.3 hPa | 0 mm | - | 644 W/m² | - |
| 1788555151 | 37.22° C | 43% | 1014.5 hPa | 0 mm | - | 619 W/m² | - |
| 1788554848 | 36.67° C | 45% | 1014.6 hPa | 0 mm | - | 624 W/m² | - |
* Rain latest hour (hover to see other rain measurements)
** Current wind speed in m/s (hover to see current wind gust speed)